This is the latest recevied weather packets stored in our database for station/object K6POO-1. If no packets are shown the sender has not sent any weather packets the latest 10 day(s).
| Time | Temp. | Humidity | Pressure | Rain* | Wind** | Luminosity | Snow |
|---|---|---|---|---|---|---|---|
| 1788378571 | 20° C | 75% | 1018 hPa | 0 mm | - | 548 W/m² | - |
| 1788378266 | 20° C | 76% | 1018.1 hPa | 0 mm | - | 1013 W/m² | - |
| 1788377961 | 18.89° C | 78% | 1018.1 hPa | 0 mm | - | 1205 W/m² | - |
| 1788377657 | 18.89° C | 79% | 1018.3 hPa | 0 mm | - | 926 W/m² | - |
| 1788377356 | 18.89° C | 79% | 1018.3 hPa | 0 mm | - | 421 W/m² | - |
| 1788377055 | 18.89° C | 79% | 1018.4 hPa | 0 mm | - | 351 W/m² | - |
| 1788376754 | 18.89° C | 79% | 1018.5 hPa | 0 mm | - | 426 W/m² | - |
| 1788376450 | 18.89° C | 79% | 1018.6 hPa | 0 mm | - | 360 W/m² | - |
| 1788376150 | 18.89° C | 79% | 1018.2 hPa | 0 mm | - | 423 W/m² | - |
| 1788375845 | 18.89° C | 80% | 1018.3 hPa | 0 mm | - | 339 W/m² | - |
| 1788375541 | 18.89° C | 80% | 1018.4 hPa | 0 mm | - | 240 W/m² | - |
| 1788375236 | 19.44° C | 79% | 1018.2 hPa | 0 mm | - | 226 W/m² | - |
| 1788374932 | 19.44° C | 78% | 1018.1 hPa | 0 mm | - | 234 W/m² | - |
| 1788374627 | 20° C | 77% | 1018.1 hPa | 0 mm | - | 314 W/m² | - |
| 1788374322 | 19.44° C | 77% | 1018 hPa | 0 mm | - | 332 W/m² | - |
| 1788374018 | 20° C | 77% | 1018 hPa | 0 mm | - | 340 W/m² | - |
| 1788373714 | 19.44° C | 77% | 1018.1 hPa | 0 mm | - | 277 W/m² | - |
| 1788373410 | 19.44° C | 76% | 1018 hPa | 0 mm | - | 255 W/m² | - |
| 1788373106 | 19.44° C | 77% | 1018 hPa | 0 mm | - | 338 W/m² | - |
| 1788372801 | 19.44° C | 77% | 1018.2 hPa | 0 mm | - | 227 W/m² | - |
| 1788372495 | 19.44° C | 77% | 1018.1 hPa | 0 mm | - | 238 W/m² | - |
| 1788372191 | 19.44° C | 76% | 1017.9 hPa | 0 mm | - | 186 W/m² | - |
| 1788371886 | 19.44° C | 75% | 1017.9 hPa | 0 mm | - | 231 W/m² | - |
| 1788371582 | 20° C | 73% | 1017.7 hPa | 0 mm | - | 156 W/m² | - |
| 1788371277 | 20° C | 73% | 1017.9 hPa | 0 mm | - | 169 W/m² | - |
* Rain latest hour (hover to see other rain measurements)
** Current wind speed in m/s (hover to see current wind gust speed)